Simultaneous Nadir Overpasses (SNOs) Predictions

Prediction of SNOs between GOES-14 and AQUA Satellite Orbit:

Table of predicted SNOs for the next 14.0 days since TLE Epoch: 4/29/2023
Index Date Time (GOES-14) GOES-14 Lat,Lon AQUA Lat,Lon Distance(km) Time Diff (sec)
1 04/29/2023 08:53:03 0.17,-108.29 -0.17,-106.72 178.80 80
2 04/29/2023 21:14:01 -0.15,-108.26 -0.88,-111.80 401.65 80
3 05/01/2023 21:00:06 -0.16,-108.28 -0.20,-108.40 13.78 80
4 05/03/2023 20:48:51 -0.16,-108.30 0.52,-105.01 374.25 80
5 05/04/2023 09:09:40 0.15,-108.34 0.54,-110.05 194.98 80
6 05/06/2023 08:53:05 0.15,-108.35 -0.22,-106.66 192.45 80
7 05/06/2023 21:14:02 -0.13,-108.31 -0.86,-111.74 389.65 80
8 05/08/2023 21:02:46 -0.14,-108.32 -0.11,-108.34 3.77 80
9 05/10/2023 20:48:49 -0.14,-108.32 0.60,-104.94 385.08 80
10 05/11/2023 09:09:37 0.13,-108.37 0.50,-109.97 182.84 80
